Date String (YYYY-MM-DD hh:mm:ss) UTC,Instrument flags,absolute air pressure of the measurement (hPa),sample flow rate (lpm),inlet stack bypass flow (lpm),air temperature of the measurement (°C),ambient temperature measured by the external sensor (°C),aerosol sample conditioner tube jacket temperature (°C),OPC LED temperature (°C),internal box temperature (°C),relative humidity of the measurement (%),span deviation,mass concentration of particles derived from Lorenz-Mie calculation of OPC scattering (μg/m³),mass concentration of particles derived from Lorenz-Mie calculation of OPC scattering (μg/m³),mass concentration of particles derived from Lorenz-Mie calculation of OPC scattering (μg/m³)
DateTimeUTC,F1_M11,P_M11,Q1_M11,Q2_M11,T1_M11,T2_M11,T3_M11,T4_M11,T5_M11,U1_M11,ZSPAN_M11,X2_M11,X0_M11,X1_M11
2023-08-07 22:00:00,SystemResetWarning,0832.6,5.00,000.00,028.9,025.7,000.0,037.3,030.3,22.0,0000.0,0003.51,0009.40,0002.52
2023-08-07 22:01:00,SystemResetWarning,0832.7,4.99,000.00,028.9,026.1,000.0,037.3,030.4,21.8,0000.0,0003.53,0009.47,0002.50
2023-08-07 22:02:00,SystemResetWarning,0833.0,5.00,000.00,028.9,026.5,000.0,037.4,030.5,22.1,0000.0,0003.47,0009.19,0002.46
2023-08-07 22:03:00,SystemResetWarning,0833.0,5.00,000.00,028.9,026.9,000.0,037.4,030.6,22.9,0000.0,0003.45,0009.14,0002.42
2023-08-07 22:04:00,SystemResetWarning,0833.0,4.99,000.00,029.0,027.2,000.0,037.4,030.7,22.9,0000.0,0003.46,0009.24,0002.38
2023-08-07 22:05:00,SystemResetWarning,0833.2,4.99,000.00,029.0,027.5,000.0,037.4,030.8,24.2,0000.0,0003.46,0009.47,0002.34
2023-08-07 22:06:00,SystemResetWarning,0833.1,5.00,000.00,029.1,027.7,000.0,037.5,030.9,24.4,0000.0,0003.42,0009.87,0002.33
2023-08-07 22:07:00,SystemResetWarning,0832.9,5.00,000.00,029.1,027.9,000.0,037.5,030.9,24.0,0000.0,0003.39,0010.09,0002.33
2023-08-07 22:08:00,SystemResetWarning,0833.0,5.01,000.00,029.2,028.0,000.0,037.5,031.0,24.0,0000.0,0003.34,0009.92,0002.33
2023-08-07 22:09:00,SystemResetWarning,0833.0,4.99,000.00,029.2,026.8,000.0,037.4,030.8,24.3,0000.0,0003.36,0009.98,0002.35
2023-08-07 22:10:00,SystemResetWarning,0833.0,5.00,000.00,029.1,025.7,000.0,037.3,030.6,24.1,0000.0,0003.37,0009.57,0002.38
2023-08-07 22:11:00,SystemResetWarning,0832.9,5.02,000.00,029.1,025.8,000.0,037.3,030.5,24.0,0000.0,0003.38,0008.51,0002.40
2023-08-07 22:12:00,SystemResetWarning,0833.1,5.00,000.00,029.0,026.1,000.0,037.4,030.5,24.1,0000.0,0003.36,0008.55,0002.41
2023-08-07 22:13:00,SystemResetWarning,0833.2,5.00,000.00,029.0,026.4,000.0,037.4,030.6,24.7,0000.0,0003.36,0008.50,0002.41
2023-08-07 22:14:00,SystemResetWarning,0833.4,5.01,000.00,029.0,026.8,000.0,037.4,030.7,25.2,0000.0,0003.32,0008.83,0002.42
2023-08-07 22:15:00,SystemResetWarning,0833.5,5.00,000.00,029.1,027.1,000.0,037.5,030.8,25.5,0000.0,0003.29,0008.65,0002.43
2023-08-07 22:16:00,SystemResetWarning,0833.3,5.00,000.00,029.1,027.4,000.0,037.5,030.8,22.8,0000.0,0003.26,0008.23,0002.43
2023-08-07 22:17:00,SystemResetWarning,0833.3,5.00,000.00,029.1,027.6,000.0,037.5,030.9,21.0,0000.0,0003.28,0007.73,0002.43
2023-08-07 22:18:00,SystemResetWarning,0833.2,4.99,000.00,029.2,027.8,000.0,037.6,030.9,18.0,0000.0,0003.26,0007.40,0002.43
2023-08-07 22:19:00,SystemResetWarning,0833.2,4.99,000.00,029.2,028.0,000.0,037.6,030.9,17.2,0000.0,0003.24,0007.47,0002.43
2023-08-07 22:20:00,SystemResetWarning,0833.2,5.00,000.00,029.2,028.1,000.0,037.6,031.0,17.0,0000.0,0003.23,0007.86,0002.44
2023-08-07 22:21:00,SystemResetWarning,0833.1,5.00,000.00,029.3,028.2,000.0,037.6,031.0,16.9,0000.0,0003.23,0007.82,0002.42
2023-08-07 22:22:00,SystemResetWarning,0833.0,5.00,000.00,029.3,028.2,000.0,037.7,031.1,16.9,0000.0,0003.23,0007.71,0002.41
2023-08-07 22:23:00,SystemResetWarning,0833.2,4.98,000.00,029.3,026.7,000.0,037.6,030.8,16.7,0000.0,0003.22,0007.52,0002.40
2023-08-07 22:24:00,SystemResetWarning,0833.0,5.01,000.00,029.3,025.8,000.0,037.5,030.6,16.8,0000.0,0003.25,0007.81,0002.41
2023-08-07 22:25:00,SystemResetWarning,0833.0,5.01,000.00,029.2,026.0,000.0,037.5,030.5,16.9,0000.0,0003.28,0007.55,0002.43
2023-08-07 22:26:00,SystemResetWarning,0832.9,5.00,000.00,029.1,026.2,000.0,037.5,030.5,17.1,0000.0,0003.32,0007.44,0002.43
2023-08-07 22:27:00,SystemResetWarning,0832.9,5.00,000.00,029.1,026.6,000.0,037.6,030.6,17.0,0000.0,0003.34,0007.47,0002.43
2023-08-07 22:28:00,SystemResetWarning,0833.2,5.00,000.00,029.1,026.9,000.0,037.6,030.7,17.0,0000.0,0003.38,0008.06,0002.43
2023-08-07 22:29:00,SystemResetWarning,0832.9,5.00,000.00,029.2,027.2,000.0,037.6,030.8,17.0,0000.0,0003.41,0008.41,0002.43
2023-08-07 22:30:00,SystemResetWarning,0832.9,5.00,000.00,029.2,027.5,000.0,037.6,030.9,16.9,0000.0,0003.48,0008.92,0002.44
2023-08-07 22:31:00,SystemResetWarning,0832.8,5.01,000.00,029.2,027.7,000.0,037.7,030.9,16.9,0000.0,0003.52,0008.95,0002.43
2023-08-07 22:32:00,SystemResetWarning,0832.9,5.00,000.00,029.3,027.9,000.0,037.7,031.0,17.0,0000.0,0003.60,0009.55,0002.44
2023-08-07 22:33:00,SystemResetWarning,0832.7,4.99,000.00,029.3,028.0,000.0,037.7,031.0,16.6,0000.0,0003.58,0009.92,0002.45
2023-08-07 22:34:00,SystemResetWarning,0832.7,4.98,000.00,029.3,027.8,000.0,037.7,031.0,16.5,0000.0,0003.59,0009.95,0002.45
2023-08-07 22:35:00,SystemResetWarning,0832.6,5.01,000.00,029.3,026.1,000.0,037.6,030.7,16.5,0000.0,0003.57,0009.74,0002.46
2023-08-07 22:36:00,SystemResetWarning,0832.5,5.01,000.00,029.2,025.7,000.0,037.5,030.6,16.8,0000.0,0003.58,0009.99,0002.49
2023-08-07 22:37:00,SystemResetWarning,0832.5,5.01,000.00,029.2,025.9,000.0,037.5,030.5,17.0,0000.0,0003.58,0010.61,0002.53
2023-08-07 22:38:00,SystemResetWarning,0832.4,5.00,000.00,029.1,026.2,000.0,037.6,030.5,17.1,0000.0,0003.63,0011.57,0002.61
2023-08-07 22:39:00,SystemResetWarning,0832.3,5.00,000.00,029.1,026.6,000.0,037.6,030.6,16.8,0000.0,0003.71,0013.79,0002.71
2023-08-07 22:40:00,SystemResetWarning,0832.3,5.00,000.00,029.1,026.9,000.0,037.6,030.7,16.6,0000.0,0003.71,0014.20,0002.73
2023-08-07 22:41:00,SystemResetWarning,0832.2,5.00,000.00,029.2,027.2,000.0,037.6,030.8,16.6,0000.0,0003.66,0014.78,0002.69
2023-08-07 22:42:00,SystemResetWarning,0832.2,5.00,000.00,029.2,027.5,000.0,037.7,030.9,16.6,0000.0,0003.59,0014.81,0002.62
2023-08-07 22:43:00,SystemResetWarning,0832.2,5.00,000.00,029.2,027.7,000.0,037.7,030.9,16.6,0000.0,0003.49,0014.40,0002.54
2023-08-07 22:44:00,SystemResetWarning,0832.4,5.00,000.00,029.3,027.9,000.0,037.7,031.0,16.6,0000.0,0003.50,0014.20,0002.44
2023-08-07 22:45:00,SystemResetWarning,0832.5,5.00,000.00,029.3,028.0,000.0,037.7,031.0,16.7,0000.0,0003.53,0014.99,0002.37
2023-08-07 22:46:00,SystemResetWarning,0832.5,5.00,000.00,029.3,028.0,000.0,037.7,031.1,16.7,0000.0,0003.51,0015.40,0002.27
2023-08-07 22:47:00,SystemResetWarning,0832.5,4.98,000.00,029.3,026.5,000.0,037.6,030.9,16.7,0000.0,0003.45,0015.65,0002.15
2023-08-07 22:48:00,SystemResetWarning,0832.5,5.00,000.00,029.3,025.6,000.0,037.5,030.7,17.0,0000.0,0003.36,0015.01,0002.03
2023-08-07 22:49:00,SystemResetWarning,0832.5,5.01,000.00,029.2,025.8,000.0,037.5,030.5,17.2,0000.0,0003.24,0014.04,0001.86
2023-08-07 22:50:00,SystemResetWarning,0832.6,5.02,000.00,029.1,026.1,000.0,037.6,030.5,17.3,0000.0,0003.05,0011.26,0001.68
2023-08-07 22:51:00,SystemResetWarning,0832.5,4.99,000.00,029.1,026.4,000.0,037.6,030.6,17.9,0000.0,0002.89,0010.71,0001.56
2023-08-07 22:52:00,SystemResetWarning,0832.5,5.00,000.00,029.1,026.8,000.0,037.6,030.7,18.3,0000.0,0002.75,0009.88,0001.50
2023-08-07 22:53:00,SystemResetWarning,0832.5,5.01,000.00,029.2,027.1,000.0,037.7,030.8,18.2,0000.0,0002.71,0009.18,0001.50
2023-08-07 22:54:00,SystemResetWarning,0832.6,5.01,000.00,029.2,027.4,000.0,037.7,030.9,17.5,0000.0,0002.61,0008.93,0001.50
2023-08-07 22:55:00,SystemResetWarning,0832.5,5.00,000.00,029.2,027.7,000.0,037.7,030.9,17.3,0000.0,0002.45,0008.89,0001.49
2023-08-07 22:56:00,SystemResetWarning,0832.6,5.00,000.00,029.3,027.9,000.0,037.7,031.0,17.1,0000.0,0002.27,0008.04,0001.47
2023-08-07 22:57:00,SystemResetWarning,0832.6,5.00,000.00,029.3,028.0,000.0,037.7,031.1,17.2,0000.0,0002.18,0007.76,0001.45
2023-08-07 22:58:00,SystemResetWarning,0832.7,4.98,000.00,029.3,026.9,000.0,037.7,030.9,17.3,0000.0,0002.12,0007.33,0001.42
2023-08-07 22:59:00,SystemResetWarning,0832.7,5.00,000.00,029.3,025.7,000.0,037.5,030.7,18.1,0000.0,0002.08,0006.80,0001.40
